Tracking 19817 objects as of 19-Aug-2019
HD Live streaming from Space Station
objects crossing your sky now

COSMOS 2251 DEB

Track COSMOS 2251 DEB now!
10-day predictions


NORAD ID: 34672
Int'l Code: 1993-036XS
Perigee: 770.5 km
Apogee: 805.7 km
Inclination: 74.0 °
Period: 100.5 minutes
Semi major axis: 7159 km
RCS: 0.0123 m2 (small)
Launch date: June 16, 1993
Source: Commonwealth of Independent States (former USSR) (CIS)
Launch site: PLESETSK MISSILE AND SPACE COMPLEX (PKMTR)

Note: This is SATELLITE DEBRIS
aabbcc
Your satellite tracking list
Your tracking list is empty




NASA's NSSDC Master Catalog

Two Line Element Set (TLE):
1 34672U 93036XS  19230.32671477 +.00000054 +00000-0 +29070-4 0  9996
2 34672 074.0345 211.0801 0024531 129.3326 299.1005 14.33231296546422
Source of the keplerian elements: AFSPC